Date Time,Air Temp,Sky Temp,Clarity,Light Level,Rain Sensor,Readings
2011-11-25 00:00:44,18.8,8.4,10.4,0.0,2.4,111
2011-11-25 00:05:44,18.8,8.5,10.3,0.0,2.4,112
2011-11-25 00:10:44,18.8,8.6,10.2,0.0,2.4,111
2011-11-25 00:15:44,18.8,8.6,10.2,0.0,2.4,111
2011-11-25 00:20:44,18.5,8.4,10.1,0.0,2.4,112
2011-11-25 00:25:44,18.8,8.6,10.2,0.0,2.4,111
2011-11-25 00:30:44,18.8,8.8,10.0,0.0,2.4,112
2011-11-25 00:35:44,18.8,8.6,10.2,0.0,2.4,111
2011-11-25 00:40:44,18.9,8.7,10.2,0.0,2.5,112
2011-11-25 00:45:44,18.9,8.8,10.0,0.0,2.5,111
2011-11-25 00:50:44,18.9,8.7,10.1,0.0,2.5,112
2011-11-25 00:55:44,18.9,8.9,10.0,0.0,2.5,111
2011-11-25 01:00:44,18.9,8.6,10.3,0.0,2.5,111
2011-11-25 01:05:44,18.9,8.8,10.1,0.0,2.5,112
2011-11-25 01:10:44,19.0,8.7,10.3,0.0,2.6,111
2011-11-25 01:15:44,18.9,8.5,10.4,0.0,2.6,111
2011-11-25 01:20:44,19.0,8.2,10.7,0.0,2.6,111
2011-11-25 01:25:44,19.0,7.5,11.4,0.0,2.6,112
2011-11-25 01:30:44,19.0,7.5,11.5,0.0,2.6,111
2011-11-25 01:35:44,19.0,8.0,11.0,0.0,2.6,112
2011-11-25 01:40:44,19.0,7.2,11.8,0.0,2.9,111
2011-11-25 01:45:44,18.9,7.0,11.9,0.0,2.6,111
2011-11-25 01:50:44,18.9,7.5,11.4,0.0,2.5,111
2011-11-25 01:55:44,18.9,8.5,10.5,0.0,2.6,112
2011-11-25 02:00:44,19.0,8.7,10.3,0.0,2.6,111
2011-11-25 02:05:44,19.1,8.7,10.4,0.0,2.7,111
2011-11-25 02:10:44,19.1,8.6,10.5,0.0,2.6,112
2011-11-25 02:15:44,19.1,8.6,10.5,0.0,2.5,111
2011-11-25 02:20:44,19.1,8.7,10.5,0.0,2.5,112
2011-11-25 02:25:44,19.2,8.5,10.7,0.0,2.5,111
2011-11-25 02:30:44,19.2,8.4,10.7,0.0,2.4,112
2011-11-25 02:35:44,18.8,8.4,10.4,0.0,2.5,111
2011-11-25 02:40:44,19.2,8.5,10.7,0.0,2.5,112
2011-11-25 02:45:44,19.2,7.0,12.2,0.0,6.9,111
2011-11-25 02:50:44,19.0,6.8,12.2,0.0,5.5,111
2011-11-25 02:55:44,18.7,6.7,12.1,0.0,2.5,112
2011-11-25 03:00:44,18.7,6.9,11.8,0.0,2.4,111
2011-11-25 03:05:44,18.8,7.5,11.3,0.0,2.4,112
2011-11-25 03:10:44,18.9,6.6,12.3,0.0,2.5,111
2011-11-25 03:15:44,19.0,6.1,12.9,0.0,2.6,111
2011-11-25 03:20:44,19.0,7.4,11.7,0.0,2.6,112
2011-11-25 03:25:44,19.1,7.2,11.9,0.0,2.5,111
2011-11-25 03:30:44,19.2,7.0,12.2,0.0,2.5,111
2011-11-25 03:35:44,19.3,7.8,11.5,0.0,2.4,112
2011-11-25 03:40:44,19.3,8.1,11.2,0.0,2.3,111
2011-11-25 03:45:44,19.4,7.2,12.2,0.0,5.1,112
2011-11-25 03:50:44,19.3,6.7,12.6,0.0,6.7,111
2011-11-25 03:55:44,19.0,6.6,12.4,0.0,6.4,111
2011-11-25 04:00:44,18.8,8.0,10.9,0.0,2.8,112
2011-11-25 04:05:44,18.8,8.2,10.6,0.0,2.8,111
2011-11-25 04:10:44,18.9,7.5,11.3,0.0,3.2,112
2011-11-25 04:15:44,18.9,7.9,11.0,0.0,3.2,111
2011-11-25 04:20:44,19.0,7.4,11.6,0.0,6.2,112
2011-11-25 04:25:44,19.0,6.8,12.2,0.0,6.4,112
2011-11-25 04:30:44,18.8,8.0,10.8,0.0,3.3,111
2011-11-25 04:35:44,18.8,7.5,11.3,0.0,3.8,111
2011-11-25 04:40:44,18.8,7.9,10.9,0.0,3.0,112
2011-11-25 04:45:44,18.8,7.6,11.1,0.0,3.6,111
2011-11-25 04:50:44,18.7,8.0,10.8,0.0,3.0,112
2011-11-25 04:55:44,18.7,8.0,10.7,0.0,2.8,111
2011-11-25 05:00:44,18.8,7.9,10.9,0.0,2.8,111
2011-11-25 05:05:44,18.8,7.5,11.3,0.0,3.2,112
2011-11-25 05:10:44,18.7,7.7,11.0,0.0,2.9,111
2011-11-25 05:15:44,18.7,7.3,11.4,0.0,3.1,112
2011-11-25 05:20:44,18.7,7.5,11.2,0.0,3.5,111
2011-11-25 05:25:44,18.9,7.7,11.2,0.0,2.9,112
2011-11-25 05:30:44,18.6,7.9,10.7,0.0,3.1,111
2011-11-25 05:35:44,18.6,7.8,10.8,0.0,3.9,112
2011-11-25 05:40:44,18.6,6.8,11.8,0.0,9.5,111
2011-11-25 05:45:44,18.6,8.2,10.5,0.0,33.2,111
2011-11-25 05:50:44,18.6,8.0,10.6,0.0,22.8,111
2011-11-25 05:55:44,18.6,7.6,11.0,0.0,3.9,112
2011-11-25 06:00:44,18.4,7.5,10.9,0.0,2.2,111
2011-11-25 06:05:44,18.1,4.4,13.8,0.0,1.9,111
2011-11-25 06:10:44,18.0,4.2,13.8,0.0,1.8,112
2011-11-25 06:15:44,18.0,5.2,12.7,0.1,1.8,112
2011-11-25 06:20:44,17.9,4.5,13.4,0.1,2.2,112
2011-11-25 06:25:44,17.8,3.1,14.7,0.1,2.3,111
2011-11-25 06:30:44,18.8,-2.8,21.6,0.2,2.2,112
2011-11-25 06:35:44,21.3,-2.6,23.9,0.3,2.4,111
2011-11-25 06:40:44,21.9,-1.6,23.5,0.6,2.5,112
2011-11-25 06:45:44,22.1,-2.8,24.9,1.0,2.3,112
2011-11-25 06:50:44,22.2,-10.6,32.8,1.9,2.3,112
2011-11-25 06:55:44,22.1,-11.8,33.8,3.7,2.3,111
2011-11-25 07:00:44,21.9,-12.8,34.7,6.5,2.3,111
2011-11-25 07:05:44,21.8,-12.8,34.6,10.7,2.3,112
2011-11-25 07:10:44,21.8,-12.7,34.5,15.6,2.4,111
2011-11-25 07:15:44,21.8,-12.3,34.1,20.3,2.6,111
2011-11-25 07:20:44,21.8,-10.7,32.4,24.1,2.6,112
2011-11-25 07:25:44,21.6,-12.6,34.3,26.8,2.6,111
2011-11-25 07:30:44,21.5,-13.4,35.0,28.7,2.6,111
2011-11-25 07:35:44,21.5,-13.7,35.2,29.7,2.5,112
2011-11-25 07:40:44,21.4,-13.9,35.2,30.4,2.4,111
2011-11-25 07:45:44,21.3,-14.1,35.4,30.9,2.4,111
2011-11-25 07:50:44,21.2,-14.4,35.7,31.2,2.3,112
2011-11-25 07:55:44,21.2,-14.5,35.7,31.5,2.3,111
2011-11-25 08:00:44,21.1,-14.6,35.8,31.6,2.3,111
2011-11-25 08:05:44,21.1,-14.8,35.9,31.8,2.3,112
2011-11-25 08:10:44,21.0,-14.8,35.8,31.9,2.3,112
2011-11-25 08:15:44,21.1,-14.6,35.7,32.0,2.3,111
2011-11-25 08:20:44,21.0,-14.5,35.6,32.0,2.3,112
2011-11-25 08:25:44,21.0,-14.6,35.6,32.1,2.2,111
2011-11-25 08:30:44,21.0,-15.0,35.9,32.1,2.2,112
2011-11-25 08:35:44,21.0,-15.1,36.1,32.2,2.3,112
2011-11-25 08:40:44,21.0,-15.2,36.2,32.2,2.3,111
2011-11-25 08:45:44,21.0,-15.0,36.0,32.2,2.3,112
2011-11-25 08:50:44,21.1,-14.6,35.7,32.3,2.3,111
2011-11-25 08:55:44,21.1,-14.3,35.5,32.3,2.3,111
2011-11-25 09:00:44,21.2,-14.7,35.9,32.3,2.3,112
2011-11-25 09:05:44,21.3,-15.0,36.3,32.3,2.3,111
2011-11-25 09:10:44,21.3,-15.2,36.5,32.3,2.3,112
2011-11-25 09:15:44,21.4,-15.0,36.3,32.3,2.3,111
2011-11-25 09:20:44,21.4,-14.8,36.2,32.3,2.3,112
2011-11-25 09:25:44,21.5,-14.9,36.4,32.3,2.3,111
2011-11-25 09:30:44,21.6,-14.3,35.9,32.3,2.3,112
2011-11-25 09:35:44,21.7,-14.2,35.8,32.3,2.4,111
2011-11-25 09:40:44,21.7,-13.7,35.4,32.3,2.4,111
2011-11-25 09:45:44,21.8,-13.6,35.4,32.3,2.6,112
2011-11-25 09:50:44,21.9,-13.5,35.4,32.4,2.6,112
2011-11-25 09:55:44,22.0,-13.0,35.1,32.4,2.5,111
2011-11-25 10:00:44,22.1,-13.0,35.2,32.4,2.3,111
2011-11-25 10:05:44,22.2,-13.3,35.5,32.4,2.3,112
2011-11-25 10:10:44,22.3,-13.3,35.5,32.4,2.3,111
2011-11-25 10:15:44,22.2,-12.3,34.6,32.4,2.3,111
2011-11-25 10:20:44,22.3,-12.2,34.5,32.5,2.3,112
2011-11-25 10:25:44,22.8,-11.3,34.0,32.5,2.3,111
2011-11-25 10:30:44,23.5,-11.3,34.8,32.5,2.3,111
2011-11-25 10:35:44,23.9,-11.7,35.6,32.5,2.3,112
2011-11-25 10:40:44,24.0,-12.1,36.0,32.5,2.3,111
2011-11-25 10:45:44,24.0,-11.1,35.1,32.6,2.3,111
2011-11-25 10:50:44,24.3,-11.4,35.7,32.6,2.3,111
2011-11-25 10:55:44,24.6,-11.6,36.1,32.6,2.3,112
2011-11-25 11:00:44,24.8,-11.3,36.2,32.6,2.2,111
2011-11-25 11:05:44,24.9,-10.2,35.1,32.6,2.3,112
2011-11-25 11:10:44,24.9,-12.2,37.1,32.6,2.3,111
2011-11-25 11:15:44,24.9,-12.2,37.1,32.6,2.3,111
2011-11-25 11:20:44,24.9,-12.2,37.1,32.6,2.3,112
2011-11-25 11:25:44,24.8,-12.0,36.8,32.6,2.3,111
2011-11-25 11:30:44,24.8,-11.3,36.1,32.6,2.3,112
2011-11-25 11:35:44,24.8,-11.1,36.0,32.6,2.3,111
2011-11-25 11:40:44,24.9,-10.8,35.7,32.6,2.3,112
2011-11-25 11:45:44,24.8,-11.8,36.5,32.6,2.3,112
2011-11-25 11:50:44,24.9,-10.8,35.7,32.6,2.3,111
2011-11-25 11:55:45,25.4,-10.2,35.6,32.6,2.3,112
2011-11-25 12:00:45,25.6,-10.9,36.5,32.6,2.3,111
2011-11-25 12:05:45,25.5,-11.0,36.5,32.6,2.3,112
2011-11-25 12:10:45,25.2,-11.6,36.8,32.6,2.3,111
2011-11-25 12:15:45,24.5,-12.1,36.6,32.6,2.3,111
2011-11-25 12:20:45,24.0,-12.7,36.7,32.6,2.2,111
2011-11-25 12:25:45,23.9,-12.5,36.4,32.6,2.3,112
2011-11-25 12:30:45,24.0,-11.6,35.6,32.6,2.3,111
2011-11-25 12:35:45,24.4,-12.1,36.6,32.6,2.3,111
2011-11-25 12:40:45,24.2,-11.8,36.0,32.6,2.3,112
2011-11-25 12:45:45,24.3,-10.6,34.9,32.6,2.3,111
2011-11-25 12:50:45,24.7,-12.3,37.0,32.6,2.2,112
2011-11-25 12:55:45,24.4,-12.3,36.7,32.6,2.2,111
2011-11-25 13:00:45,23.9,-10.8,34.7,32.5,2.3,112
2011-11-25 13:05:45,23.6,-9.8,33.4,32.5,2.3,112
2011-11-25 13:10:45,23.4,-9.1,32.5,32.5,2.4,112
2011-11-25 13:15:45,23.3,-8.5,31.7,32.5,2.3,111
2011-11-25 13:20:45,23.3,-8.9,32.1,32.5,2.3,112
2011-11-25 13:25:45,23.4,-8.2,31.6,32.6,2.3,112
2011-11-25 13:30:45,23.6,-8.5,32.1,32.6,2.4,111
2011-11-25 13:35:45,23.7,-9.4,33.1,32.6,2.3,112
2011-11-25 13:40:45,23.6,-10.1,33.7,32.5,2.3,112
2011-11-25 13:45:45,23.5,-9.4,32.9,32.5,2.3,112
2011-11-25 13:50:45,23.5,-9.5,33.0,32.5,2.4,112
2011-11-25 13:55:45,23.6,-10.1,33.7,32.6,2.3,112
2011-11-25 14:00:45,23.6,-11.0,34.6,32.6,2.3,111
2011-11-25 14:05:45,23.5,-10.4,33.9,32.5,2.4,112
2011-11-25 14:10:45,23.5,-10.0,33.5,32.6,2.4,113
2011-11-25 14:15:45,23.7,-9.1,32.9,32.6,2.3,111
2011-11-25 14:20:45,23.9,-9.4,33.3,32.5,2.3,112
2011-11-25 14:25:45,23.7,-9.1,32.8,32.5,2.3,112
2011-11-25 14:30:45,23.4,-9.6,33.0,32.5,2.3,112
2011-11-25 14:35:45,23.0,-7.7,30.7,32.4,2.3,112
2011-11-25 14:40:45,22.8,-1.2,24.0,32.4,2.3,112
2011-11-25 14:45:45,22.7,-2.7,25.4,32.4,2.3,111
2011-11-25 14:50:45,22.6,-6.4,29.0,32.4,2.2,112
2011-11-25 14:55:45,22.7,-11.2,33.9,32.5,2.2,111
2011-11-25 15:00:45,22.8,-11.8,34.5,32.5,2.2,112
2011-11-25 15:05:45,22.9,-11.9,34.7,32.5,2.3,111
2011-11-25 15:10:45,22.8,-12.5,35.3,32.5,2.3,112
2011-11-25 15:15:45,22.6,-13.0,35.6,32.4,2.3,111
2011-11-25 15:20:45,22.4,-13.0,35.3,32.4,2.3,112
2011-11-25 15:25:45,22.2,-12.9,35.1,32.4,2.3,111
2011-11-25 15:30:45,22.1,-12.6,34.6,32.3,2.3,111
2011-11-25 15:35:45,21.9,-12.0,34.0,32.3,2.3,111
2011-11-25 15:40:45,21.8,-9.9,31.6,32.2,2.3,112
2011-11-25 15:45:45,21.6,-11.6,33.2,32.1,2.3,112
2011-11-25 15:50:45,21.5,-12.4,33.9,32.0,2.4,111
2011-11-25 15:55:45,21.5,-13.1,34.6,31.8,2.5,112
2011-11-25 16:00:45,21.4,-13.3,34.7,31.5,2.6,111
2011-11-25 16:05:45,21.3,-13.5,34.9,31.1,2.5,112
2011-11-25 16:10:45,21.2,-13.7,34.9,30.6,2.4,112
2011-11-25 16:15:45,21.1,-13.6,34.7,29.6,2.3,111
2011-11-25 16:20:45,20.9,-13.9,34.9,28.1,2.3,112
2011-11-25 16:25:45,20.8,-14.0,34.8,25.4,2.3,111
2011-11-25 16:30:45,20.8,-13.8,34.6,21.6,2.3,112
2011-11-25 16:35:45,20.7,-13.7,34.4,16.8,2.2,111
2011-11-25 16:40:45,20.6,-13.7,34.4,11.8,2.2,112
2011-11-25 16:45:45,20.9,-13.3,34.2,7.7,2.1,111
2011-11-25 16:50:45,20.6,-12.8,33.4,4.7,2.1,112
2011-11-25 16:55:45,20.6,-11.7,32.3,2.7,2.1,111
2011-11-25 17:00:45,20.6,-11.0,31.7,1.5,2.1,112
2011-11-25 17:05:45,20.6,-10.8,31.4,0.7,2.1,111
2011-11-25 17:10:45,20.6,-3.7,24.3,0.3,2.1,112
2011-11-25 17:15:45,19.6,0.1,19.5,0.2,2.0,111
2011-11-25 17:20:45,17.8,0.0,17.8,0.2,2.3,112
2011-11-25 17:25:45,16.5,1.9,14.7,0.1,2.3,111
2011-11-25 17:30:45,16.5,1.0,15.5,0.1,2.4,111
2011-11-25 17:35:45,16.3,1.2,15.1,0.1,2.6,111
2011-11-25 17:40:45,16.3,2.0,14.2,0.1,2.5,111
2011-11-25 17:45:45,16.3,2.8,13.6,0.1,2.5,111
2011-11-25 17:50:45,16.4,2.7,13.7,0.1,2.5,111
2011-11-25 17:55:45,16.4,2.4,14.0,0.1,2.5,111
2011-11-25 18:00:45,16.4,2.3,14.1,0.1,2.5,111
2011-11-25 18:05:45,16.4,0.5,15.8,0.1,2.4,111
2011-11-25 18:10:45,16.8,-5.3,22.1,0.1,2.4,112
2011-11-25 18:15:45,19.4,-12.3,31.7,0.0,2.3,111
2011-11-25 18:20:45,20.2,-12.5,32.7,0.0,2.2,111
2011-11-25 18:25:45,20.4,-12.6,33.0,0.0,2.0,112
2011-11-25 18:30:45,20.4,-12.6,33.0,0.0,1.8,111
2011-11-25 18:35:45,20.5,-12.1,32.7,0.0,1.9,111
2011-11-25 18:40:45,20.5,-12.5,33.0,0.0,1.9,111
2011-11-25 18:45:45,20.4,-12.7,33.1,0.0,1.9,112
2011-11-25 18:50:45,20.4,-12.8,33.1,0.0,2.1,111
2011-11-25 18:55:45,20.3,-13.0,33.3,0.0,2.1,112
2011-11-25 19:00:45,20.2,-13.4,33.6,0.0,2.0,111
2011-11-25 19:05:45,19.8,-13.6,33.4,0.0,2.1,112
2011-11-25 19:10:45,20.1,-13.6,33.7,0.0,2.2,111
2011-11-25 19:15:45,20.1,-13.5,33.6,0.0,2.2,111
2011-11-25 19:20:45,19.8,-13.4,33.1,0.0,2.2,112
2011-11-25 19:25:45,20.2,-13.1,33.2,0.0,2.2,112
2011-11-25 19:30:45,20.2,-13.2,33.5,0.0,2.0,111
2011-11-25 19:35:45,20.1,-13.1,33.2,0.0,2.2,111
2011-11-25 19:40:45,20.2,-13.0,33.2,0.0,2.1,112
2011-11-25 19:45:45,20.2,-13.0,33.2,0.0,2.2,111
2011-11-25 19:50:45,19.9,-13.0,33.0,0.0,2.3,111
2011-11-25 19:55:45,19.6,-12.6,32.3,0.0,2.2,112
2011-11-25 20:00:45,19.6,-12.4,32.0,0.0,2.3,111
2011-11-25 20:05:45,19.5,-12.4,31.9,0.0,2.3,112
2011-11-25 20:10:45,19.4,-12.6,32.0,0.0,2.3,111
2011-11-25 20:15:45,19.4,-12.6,32.0,0.0,2.3,111
2011-11-25 20:20:45,19.3,-12.6,31.9,0.0,2.3,112
2011-11-25 20:25:45,19.4,-12.7,32.1,0.0,2.3,111
2011-11-25 20:30:45,19.6,-13.1,32.7,0.0,2.3,112
2011-11-25 20:35:45,19.7,-13.3,33.0,0.0,2.3,112
2011-11-25 20:40:45,19.7,-13.2,32.9,0.0,2.3,111
2011-11-25 20:45:45,19.7,-13.0,32.7,0.0,2.3,112
2011-11-25 20:50:45,19.7,-12.6,32.3,0.0,2.3,111
2011-11-25 20:55:45,19.8,-12.6,32.4,0.0,2.3,112
2011-11-25 21:00:45,19.5,-12.5,32.0,0.0,2.3,111
2011-11-25 21:05:45,19.8,-12.6,32.3,0.0,2.3,112
2011-11-25 21:10:45,19.7,-12.5,32.2,0.0,2.3,111
2011-11-25 21:15:45,19.6,-12.6,32.2,0.0,2.3,111
2011-11-25 21:20:45,19.4,-12.2,31.6,0.0,2.3,111
2011-11-25 21:25:45,19.6,-10.8,30.4,0.0,2.3,112
2011-11-25 21:30:45,19.8,-7.2,27.0,0.0,2.3,111
2011-11-25 21:35:45,20.0,-2.2,22.2,0.1,2.3,112
2011-11-25 21:40:45,20.2,-2.5,22.8,0.1,2.3,112
2011-11-25 21:45:45,20.4,-2.9,23.4,0.1,2.3,111
2011-11-25 21:50:45,20.5,-3.4,23.9,0.1,2.3,112
2011-11-25 21:55:45,20.6,-0.8,21.4,0.1,2.2,112
2011-11-25 22:00:45,20.6,-0.7,21.3,0.1,2.1,112
2011-11-25 22:05:45,20.5,-0.4,20.9,0.1,2.3,112
2011-11-25 22:10:45,18.5,1.4,17.1,0.1,2.3,111
2011-11-25 22:15:45,16.6,2.0,14.6,0.1,2.3,111
2011-11-25 22:20:45,16.1,3.1,13.0,0.1,2.3,111
2011-11-25 22:25:45,15.9,2.7,13.3,0.1,2.3,111
2011-11-25 22:30:45,15.9,1.2,14.7,0.1,2.3,111
2011-11-25 22:35:45,16.1,1.2,14.9,0.1,2.2,111
2011-11-25 22:40:45,15.9,-1.9,17.7,0.0,2.1,112
2011-11-25 22:45:45,18.5,-9.0,27.5,0.0,2.4,111
2011-11-25 22:50:45,19.9,-11.9,31.9,0.0,2.3,111
2011-11-25 22:55:45,20.3,-12.0,32.2,0.0,2.3,111
2011-11-25 23:00:45,20.4,-11.2,31.5,0.0,2.3,112
2011-11-25 23:05:45,20.3,-10.1,30.5,0.0,2.3,112
2011-11-25 23:10:45,20.3,-10.4,30.7,0.0,2.3,112
2011-11-25 23:15:45,20.3,-9.3,29.6,0.0,2.3,112
2011-11-25 23:20:45,20.3,-4.4,24.7,0.0,2.3,111
2011-11-25 23:25:45,19.5,0.7,18.8,0.0,2.3,112
2011-11-25 23:30:45,16.9,2.4,14.5,0.1,2.4,110
2011-11-25 23:35:45,16.2,1.7,14.4,0.1,2.3,112
2011-11-25 23:40:45,17.3,-4.9,22.2,0.0,2.4,111
2011-11-25 23:45:45,19.6,-3.6,23.2,0.0,2.3,112
2011-11-25 23:50:45,20.3,-2.8,23.1,0.0,2.3,112
2011-11-25 23:55:45,20.5,-3.0,23.6,0.0,2.2,111
